St. Louis, MO

7:26 PM CDT on September 25, 2017 (GMT -0500)
Lambert-Saint Louis International

Weather History for KSTL - April, 2014

Change the Weather History Date:

Friday, April 4, 2014

  Actual Average Record
Temperature  
Mean Temperature 51 °F 53 °F  
Max Temperature 59 °F 63 °F 87 °F (1929)
Min Temperature 42 °F 43 °F 23 °F (1975)
Degree Days  
Heating Degree Days 14 13  
Month to date heating degree days 46 53  
Since 1 July heating degree days 4773 4239  
Cooling Degree Days 0 1  
Month to date cooling degree days 0 4  
Year to date cooling degree days 0 11  
Moisture  
Dew Point 38 °F    
Average Humidity 68    
Maximum Humidity 86    
Minimum Humidity 49    
Precipitation  
Precipitation T in 0.11 in 2.16 in (1892)
Month to date precipitation 4.83 0.48  
Year to date precipitation 9.53 8.44  
Snow  
Snow 0.00 in 0.00 in 2.00 in (1899)
Month to date snowfall T 0.1  
Since 1 July snowfall 28.8 17.4  
Snow Depth 0.00 in    
Sea Level Pressure  
Sea Level Pressure 29.83 in    
Wind  
Wind Speed 19 mph (West)    
Max Wind Speed 35 mph    
Max Gust Speed 44 mph    
Visibility 10 miles    
Events Rain , Thunderstorm    
T = Trace of Precipitation, MM = Missing Value Source: NWS Daily Summary

Daily Weather History Graph

Daily Weather History Graph

Search for Another Location

Airport or City:

Trip Planner

Search our weather history database for the weather conditions in past years. The results will help you decide how hot, cold, wet, or windy it might be!

Date:

Astronomy

Apr. 04, 2014 Rise Set
Actual Time 6:41 AM CDT 7:27 PM CDT
Civil Twilight 6:14 AM CDT 7:54 PM CDT
Nautical Twilight 5:42 AM CDT 8:26 PM CDT
Astronomical Twilight 5:09 AM CDT 8:59 PM CDT
Moon 10:00 AM CDT (4/4) No Moon Set
Length of Visible Light 13h 40m
Length of Day
12h 46m
Waxing Crescent, 25% of the Moon is Illuminated
Apr 4
Waxing Crescent
Apr 7
First Quarter
Apr 15
Full
Apr 22
Last Quarter
Apr 29
New

Hourly Weather History & Observations

Time (CDT) Temp. Windchill Dew Point Humidity Pressure Visibility Wind Dir Wind Speed Gust Speed Precip Events Conditions
12:34 AM 60.8 °F - 55.4 °F 82% 29.66 in 10.0 mi South 9.2 mph - N/A Thunderstorm Thunderstorm
12:51 AM 59.0 °F - 55.0 °F 87% 29.66 in 8.0 mi South 9.2 mph - 0.01 in Rain , Thunderstorm Light Thunderstorms and Rain
1:07 AM 59.0 °F - 55.4 °F 88% 29.66 in 10.0 mi South 8.1 mph - 0.01 in Rain Light Rain
1:51 AM 57.9 °F - 55.0 °F 90% 29.60 in 10.0 mi SSE 8.1 mph - 0.01 in   Overcast
2:36 AM 57.2 °F - 53.6 °F 88% 29.57 in 10.0 mi SSW 4.6 mph - N/A   Overcast
2:51 AM 57.0 °F - 54.0 °F 89% 29.57 in 10.0 mi SSW 4.6 mph - N/A   Overcast
3:19 AM 57.2 °F - 53.6 °F 88% 29.60 in 10.0 mi SW 10.4 mph - N/A   Overcast
3:25 AM 57.2 °F - 53.6 °F 88% 29.60 in 10.0 mi WSW 15.0 mph 20.7 mph N/A   Overcast
3:51 AM 55.0 °F - 48.9 °F 80% 29.60 in 10.0 mi West 21.9 mph 35.7 mph N/A   Overcast
4:51 AM 52.0 °F - 44.1 °F 74% 29.66 in 10.0 mi West 26.5 mph 43.7 mph N/A   Overcast
5:09 AM 51.8 °F - 42.8 °F 71% 29.68 in 10.0 mi West 23.0 mph 31.1 mph N/A   Overcast
5:21 AM 51.8 °F - 42.8 °F 71% 29.68 in 10.0 mi West 25.3 mph 35.7 mph N/A   Overcast
5:51 AM 48.9 °F - 39.9 °F 71% 29.70 in 10.0 mi West 24.2 mph 31.1 mph N/A   Overcast
6:51 AM 45.0 °F 37.1 °F 37.0 °F 74% 29.75 in 10.0 mi West 19.6 mph 29.9 mph 0.00 in Rain Light Rain
7:34 AM 42.8 °F 32.7 °F 33.8 °F 70% 29.77 in 10.0 mi West 27.6 mph 38.0 mph 0.00 in Rain Light Rain
7:44 AM 42.8 °F 33.5 °F 33.8 °F 70% 29.78 in 8.0 mi West 23.0 mph 32.2 mph 0.00 in Rain Light Rain
7:51 AM 43.0 °F 33.3 °F 34.0 °F 71% 29.78 in 10.0 mi West 25.3 mph 31.1 mph 0.00 in Rain Light Rain
8:43 AM 42.8 °F 33.3 °F 30.2 °F 61% 29.81 in 10.0 mi West 24.2 mph 33.4 mph 0.00 in   Overcast
8:51 AM 43.0 °F 33.1 °F 30.0 °F 60% 29.81 in 10.0 mi West 26.5 mph 39.1 mph 0.00 in   Mostly Cloudy
9:51 AM 43.0 °F 33.1 °F 30.0 °F 60% 29.84 in 10.0 mi West 26.5 mph 34.5 mph N/A   Mostly Cloudy
10:51 AM 44.1 °F 34.8 °F 30.0 °F 58% 29.87 in 10.0 mi WNW 25.3 mph 38.0 mph N/A   Mostly Cloudy
11:51 AM 46.0 °F 37.4 °F 30.0 °F 54% 29.90 in 10.0 mi WNW 25.3 mph 32.2 mph N/A   Mostly Cloudy
12:51 PM 46.9 °F - 28.9 °F 50% 29.93 in 10.0 mi West 26.5 mph 38.0 mph N/A   Mostly Cloudy
1:51 PM 46.9 °F - 30.9 °F 54% 29.95 in 10.0 mi WNW 19.6 mph 39.1 mph N/A   Mostly Cloudy
2:51 PM 46.9 °F - 30.9 °F 54% 29.97 in 10.0 mi West 24.2 mph 34.5 mph N/A   Overcast
3:51 PM 48.0 °F - 30.9 °F 52% 29.98 in 10.0 mi West 24.2 mph 31.1 mph N/A   Mostly Cloudy
4:51 PM 46.9 °F - 30.9 °F 54% 30.01 in 10.0 mi WNW 24.2 mph 33.4 mph N/A   Mostly Cloudy
5:51 PM 45.0 °F 36.4 °F 30.9 °F 58% 30.04 in 10.0 mi WNW 23.0 mph 32.2 mph N/A   Overcast
6:51 PM 45.0 °F 38.2 °F 30.9 °F 58% 30.08 in 10.0 mi WNW 15.0 mph 25.3 mph N/A   Overcast
7:51 PM 44.1 °F 35.7 °F 28.9 °F 55% 30.09 in 10.0 mi West 20.7 mph 27.6 mph N/A   Overcast
8:51 PM 44.1 °F 37.4 °F 30.0 °F 58% 30.13 in 10.0 mi West 13.8 mph - N/A   Overcast
9:51 PM 44.1 °F 38.1 °F 30.0 °F 58% 30.15 in 10.0 mi West 11.5 mph - N/A   Overcast
10:51 PM 44.1 °F 39.5 °F 30.0 °F 58% 30.16 in 10.0 mi WNW 8.1 mph - N/A   Overcast
11:51 PM 43.0 °F 38.8 °F 30.9 °F 62% 30.16 in 10.0 mi WNW 6.9 mph - N/A   Overcast